Weather History for Fort Lauderdale, FL

Change the Weather History Date:

Saturday, December 22, 2012

  Actual Average Record
Temperature  
Mean Temperature 56 °F -  
Max Temperature 64 °F 77 °F 89 °F (1983)
Min Temperature 48 °F 60 °F 34 °F (1960)
Degree Days  
Heating Degree Days 9    
Growing Degree Days 6 (Base 50)    
Moisture  
Dew Point 28 °F    
Average Humidity 39    
Maximum Humidity 71    
Minimum Humidity 24    
Precipitation  
Precipitation 0.00 in - - ()
Sea Level Pressure  
Sea Level Pressure 30.22 in    
Wind  
Wind Speed 7 mph (NW)    
Max Wind Speed 12 mph    
Max Gust Speed 22 mph    
Visibility 10 miles    
Events      
Averages and records for this station are not official NWS values.
T = Trace of Precipitation, MM = Missing Value Source: NWS Daily Summary

Daily Weather History Graph

Daily Weather History Graph

Search for Another Location

Airport:

Trip Planner

Search our weather history database for the weather conditions in past years. The results will help you decide how hot, cold, wet, or windy it might be!

Date:

Astronomy

Dec. 22, 2012 Rise Set
Actual Time 7:04 AM EST 5:34 PM EST
Civil Twilight 6:39 AM EST 5:59 PM EST
Nautical Twilight 6:10 AM EST 6:28 PM EST
Astronomical Twilight 5:42 AM EST 6:57 PM EST
Moon 1:36 PM EST 2:05 AM EST
Length of Visible Light 11h 20m
Length of Day
10h 30m
Waxing Gibbous, 73% of the Moon is Illuminated
Dec 22
Waxing Gibbous
Dec 28
Full
Jan 4
Last Quarter
Jan 11
New
Jan 18
First Quarter

Hourly Weather History & Observations

Time (EST) Temp. Dew Point Humidity Pressure Visibility Wind Dir Wind Speed Gust Speed Precip Events Conditions
12:53 AM 48.9 °F 39.9 °F 71% 30.19 in 10.0 mi WNW 5.8 mph - N/A   Clear
1:53 AM 48.9 °F 39.0 °F 69% 30.18 in 10.0 mi NW 3.5 mph - N/A   Clear
2:53 AM 50.0 °F 36.0 °F 59% 30.19 in 10.0 mi NNW 8.1 mph 17.3 mph N/A   Clear
3:53 AM 50.0 °F 28.9 °F 44% 30.19 in 10.0 mi NNW 8.1 mph 17.3 mph N/A   Clear
4:53 AM 48.9 °F 23.0 °F 36% 30.19 in 10.0 mi NNW 9.2 mph - N/A   Clear
5:53 AM 48.9 °F 21.0 °F 33% 30.21 in 10.0 mi NNW 9.2 mph 21.9 mph N/A   Clear
6:53 AM 48.0 °F 21.9 °F 36% 30.24 in 10.0 mi NNW 8.1 mph 18.4 mph N/A   Partly Cloudy
7:53 AM 48.0 °F 21.9 °F 36% 30.25 in 10.0 mi NNW 11.5 mph 16.1 mph N/A   Clear
8:53 AM 51.1 °F 21.9 °F 32% 30.27 in 10.0 mi NW 11.5 mph 18.4 mph N/A   Clear
9:53 AM 55.0 °F 21.9 °F 28% 30.27 in 10.0 mi NNW 9.2 mph - N/A   Clear
10:53 AM 57.9 °F 24.1 °F 27% 30.27 in 10.0 mi NNW 11.5 mph 16.1 mph N/A   Clear
11:53 AM 61.0 °F 25.0 °F 25% 30.24 in 10.0 mi North 11.5 mph 16.1 mph N/A   Clear
12:53 PM 62.1 °F 26.1 °F 25% 30.21 in 10.0 mi NW 10.4 mph 17.3 mph N/A   Clear
1:53 PM 64.0 °F 26.1 °F 24% 30.19 in 10.0 mi NW 9.2 mph 16.1 mph N/A   Clear
2:53 PM 64.0 °F 26.1 °F 24% 30.19 in 10.0 mi NNW 10.4 mph 17.3 mph N/A   Clear
3:53 PM 64.0 °F 26.1 °F 24% 30.19 in 10.0 mi NNW 6.9 mph - N/A   Clear
4:53 PM 62.1 °F 27.0 °F 26% 30.20 in 10.0 mi NNW 5.8 mph - N/A   Clear
5:53 PM 59.0 °F 28.0 °F 31% 30.21 in 10.0 mi NW 3.5 mph - N/A   Clear
6:53 PM 55.9 °F 32.0 °F 40% 30.22 in 10.0 mi Calm Calm - N/A   Clear
7:53 PM 54.0 °F 33.1 °F 45% 30.24 in 10.0 mi NW 3.5 mph - N/A   Clear
8:53 PM 52.0 °F 35.1 °F 53% 30.25 in 10.0 mi WNW 3.5 mph - N/A   Clear
9:53 PM 53.1 °F 34.0 °F 48% 30.26 in 10.0 mi Calm Calm - N/A   Clear
10:53 PM 53.1 °F 33.1 °F 47% 30.25 in 10.0 mi NNW 4.6 mph - N/A   Clear
11:53 PM 52.0 °F 32.0 °F 47% 30.23 in 10.0 mi NNW 4.6 mph - N/A   Clear